User: anonymous   Login
Location: Unspecified
(0.0000°N, 0.0000°E)
Time: 06:48:30
(UTC+00:00)
Language:

STARLINK-30804 - Orbit

View from above orbital plane
View from above orbital plane
View from above satellite
View from above satellite

Ground track
Ground track

The orbit is defined by the following mean orbital elements,

1 58155U          26145.20718413 +.00000000 +00000-0 +10920-3 0 00006
2 58155  53.1607 224.2533 0001161 103.7540 256.3591 15.31687872    07
Epoch (UTC): 25 May 2026 04:58:20
Eccentricity: 0.0001161
inclination: 53.1607°
perigee height: 470 km
apogee height: 472 km
right ascension of ascending node: 224.2533°
argument of perigee: 103.7540°
revolutions per day: 15.31687872
mean anomaly at epoch: 256.3591°

The dashed part of the orbit path shows where the satellite is in the earth's shadow,  

DLR